Flight Track Log - Related Links

Times and Time Zones

All times are in EDT time to prevent confusion due to time zone crossing. See the BJS542 flight status page for this flight to view local times or setup timezone preferences in your user account.

Time Position Orientation Groundspeed Altitude Reporting Facility
EDT Latitude Longitude Course Direction KTS MPH feet Rate Location/Type
Thu 05:15:20 PM 33.8333 -84.3333 301° West 199 229 3,000  Level Atlanta TRACON
Thu 05:16:20 PM 33.8667 -84.4000 301° West 241 277 3,700 1,450 Climbing Atlanta TRACON
Thu 05:17:20 PM 33.8667 -84.4500 270° West 242 278 5,900 1,150 Climbing Atlanta TRACON
Thu 05:18:20 PM 33.8000 -84.4333 168° South 252 290 6,000 50 Climbing Atlanta TRACON
Thu 05:19:20 PM 33.7333 -84.4000 157° South 247 284 6,000  Level Atlanta TRACON
Thu 05:20:26 PM 33.6667 -84.4000 180° South 249 287 6,000  Level Atlanta TRACON
Thu 05:21:20 PM 33.6000 -84.4000 180° South 248 285 6,000  Level Atlanta TRACON
Thu 05:22:20 PM 33.5333 -84.4000 180° South 246 283 6,000 850 Level Atlanta TRACON
Thu 05:23:20 PM 33.4667 -84.3667 157° South 271 312 7,700 2,505 Climbing Atlanta TRACON
Thu 05:25:34 PM 33.3161 -84.2428 145° Southeast 326 375 14,100 2,258 Climbing Atlanta Center
Thu 05:26:34 PM 33.2119 -84.1581 146° Southeast 394 453 15,000 2,150 Climbing Atlanta Center
Thu 05:27:34 PM 33.1158 -84.0811 146° Southeast 415 478 18,400 3,150 Climbing Atlanta Center
Thu 05:28:34 PM 33.0386 -84.0164 145° Southeast 422 486 21,300 2,650 Climbing Atlanta Center
Thu 05:29:34 PM 32.9281 -83.9275 146° Southeast 422 486 23,700 2,400 Climbing Atlanta Center
Thu 05:30:34 PM 32.8214 -83.8411 146° Southeast 441 507 26,100 2,400 Climbing Atlanta Center
Thu 05:31:34 PM 32.7147 -83.7550 146° Southeast 459 528 28,500 2,150 Climbing Atlanta Center
Thu 05:32:34 PM 32.6039 -83.6642 145° Southeast 471 542 30,400 2,000 Climbing Atlanta Center
Thu 05:33:34 PM 32.4950 -83.5783 146° Southeast 471 542 32,500 2,050 Climbing Atlanta Center
Thu 05:34:34 PM 32.3842 -83.4878 145° Southeast 477 549 34,500 2,000 Climbing Atlanta Center
Thu 05:35:34 PM 32.2750 -83.3978 145° Southeast 482 555 36,500 2,000 Climbing Atlanta Center
Thu 05:36:34 PM 32.1661 -83.3100 146° Southeast 482 555 38,500 1,451 Climbing Atlanta Center
Thu 05:39:38 PM 31.8242 -83.0392 146° Southeast 489 563 42,400 1,205 Climbing Jacksonville Center
Thu 05:40:38 PM 31.7114 -82.9511 146° Southeast 482 555 43,400 1,000 Climbing Jacksonville Center
Thu 05:41:38 PM 31.6008 -82.8658 147° Southeast 482 555 44,400 800 Climbing Jacksonville Center
Thu 05:42:38 PM 31.5067 -82.7903 146° Southeast 477 549 45,000 300 Climbing Jacksonville Center
Thu 05:43:38 PM 31.3981 -82.7028 145° Southeast 472 543 45,000  Level Jacksonville Center
Thu 05:44:38 PM 31.2747 -82.6131 148° Southeast 476 548 45,000  Level Jacksonville Center
Thu 05:45:38 PM 31.1575 -82.5261 148° Southeast 481 554 45,000  Level Jacksonville Center
Thu 05:46:38 PM 31.0425 -82.4344 146° Southeast 486 559 45,000  Level Jacksonville Center
Thu 05:47:39 PM 30.9294 -82.3478 147° Southeast 491 565 45,000  Level Jacksonville Center
Thu 05:48:39 PM 30.8119 -82.2564 146° Southeast 491 565 45,000  Level Jacksonville Center
Thu 05:49:38 PM 30.6967 -82.1678 147° Southeast 491 565 45,000  Level Jacksonville Center
Thu 05:50:39 PM 30.5792 -82.0794 147° Southeast 496 571 45,000  Level Jacksonville Center
Thu 05:51:38 PM 30.4742 -81.9911 144° Southeast 514 592 45,000  Level Jacksonville Center
Thu 05:52:38 PM 30.3586 -81.8983 145° Southeast 514 592 45,000  Level Jacksonville Center
Thu 05:53:38 PM 30.2450 -81.7961 142° Southeast 514 592 45,000  Level Jacksonville Center
Thu 05:54:38 PM 30.1314 -81.6989 143° Southeast 514 592 45,000  Level Jacksonville Center
Thu 05:55:38 PM 30.0200 -81.6019 143° Southeast 514 592 45,000  Level Jacksonville Center
Thu 05:56:39 PM 29.9083 -81.5028 142° Southeast 508 585 45,000  Level Jacksonville Center
Thu 05:57:38 PM 29.7964 -81.4064 143° Southeast 508 585 45,000  Level Jacksonville Center
Thu 05:58:38 PM 29.6867 -81.3100 143° Southeast 508 585 45,000  Level Jacksonville Center
Thu 06:00:58 PM 29.4272 -81.0869 143° Southeast 502 578 45,000  Level Miami Center
Thu 06:01:58 PM 29.3156 -80.9922 144° Southeast 496 571 45,000 -50 Level Miami Center
Thu 06:02:58 PM 29.2056 -80.8956 143° Southeast 501 577 44,900  Descending Miami Center
Thu 06:03:58 PM 29.0956 -80.7989 142° Southeast 501 577 45,000  Climbing Miami Center
Thu 06:04:58 PM 28.9836 -80.7047 144° Southeast 501 577 44,900  Descending Miami Center
Thu 06:05:58 PM 28.8653 -80.5986 142° Southeast 501 577 45,000 50 Climbing Miami Center
Thu 06:06:58 PM 28.7544 -80.5358 154° Southeast 495 570 45,000  Level Miami Center
Thu 06:07:58 PM 28.6308 -80.4678 154° Southeast 495 570 45,000  Level Miami Center
Thu 06:08:58 PM 28.4950 -80.3972 155° Southeast 490 564 45,000 -150 Level Miami Center
Thu 06:09:58 PM 28.3714 -80.3297 154° Southeast 490 564 44,700 -1,300 Descending Miami Center
Thu 06:10:58 PM 28.2497 -80.2647 155° Southeast 496 571 42,400 -2,300 Descending Miami Center
Thu 06:11:58 PM 28.1342 -80.2069 156° South 502 578 40,100 -2,350 Descending Miami Center
Thu 06:12:58 PM 28.0086 -80.1400 155° Southeast 502 578 37,700 -2,600 Descending Miami Center
Thu 06:13:58 PM 27.8703 -80.0678 155° Southeast 502 578 34,900 -2,500 Descending Miami Center
Thu 06:14:58 PM 27.7444 -80.0033 156° South 507 583 32,700 -2,300 Descending Miami Center
Thu 06:15:58 PM 27.6225 -79.9411 156° South 495 570 30,300 -2,400 Descending Miami Center
Thu 06:16:58 PM 27.5131 -79.8822 154° Southeast 486 559 27,900 -2,350 Descending Miami Center
Thu 06:17:58 PM 27.3825 -79.8389 164° South 486 559 25,600 -2,500 Descending Miami Center
Thu 06:18:58 PM 27.2453 -79.8075 169° South 467 537 22,900 -2,550 Descending Miami Center
Thu 06:19:58 PM 27.1269 -79.7786 168° South 453 521 20,500 -2,350 Descending Miami Center
Thu 06:20:58 PM 27.0106 -79.7478 167° South 438 504 18,200 -2,300 Descending Miami Center
Thu 06:21:58 PM 26.9067 -79.7242 169° South 424 488 15,900 -2,600 Descending Miami Center
Thu 06:22:58 PM 26.7922 -79.6958 168° South 406 467 13,000 -2,625 Descending Miami Center
Thu 06:23:34 PM 26.7275 -79.6989 182° South 375 432 11,700 -1,700 Descending Miami Center
Thu 06:23:58 PM 26.7000 -79.7100 200° South 360 414 11,300 -1,224 Descending Miami Center
Thu 06:24:23 PM 26.6475 -79.7319 200° South 354 407 10,700 -1,300 Descending Miami Center
Thu 06:24:58 PM 26.5989 -79.7561 204° Southwest 360 414 10,000 -1,180 Descending Miami Center
Thu 06:25:24 PM 26.5608 -79.7786 208° Southwest 346 398 9,500 -1,000 Descending Miami Center
Thu 06:25:58 PM 26.5231 -79.7939 200° South 355 409 9,000 -1,082 Descending Miami Center
Thu 06:26:25 PM 26.4744 -79.8181 204° Southwest 329 379 8,400 -1,100 Descending Miami Center
Thu 06:26:58 PM 26.4303 -79.8356 200° South 340 391 7,900 -393 Descending Miami Center
Thu 06:27:26 PM 26.3881 -79.8600 207° Southwest 326 375 8,000 100 Climbing Miami Center
Thu 06:27:58 PM 26.3625 -79.8803 215° Southwest 330 380 8,000 -590 Level Miami Center
Thu 06:28:27 PM 26.3261 -79.9142 220° Southwest 268 308 7,400 -1,000 Descending Miami Center
Thu 06:28:58 PM 26.2986 -79.9389 219° Southwest 293 337 7,000 -436 Descending Miami Center
Thu 06:29:22 PM 26.2731 -79.9639 221° Southwest 268 308 7,000 -100 Level Miami Center
Thu 06:29:58 PM 26.2431 -79.9931 221° Southwest 272 313 6,900  Descending Miami Center
Thu 06:30:29 PM 26.2089 -80.0244 219° Southwest 273 314 7,000  Climbing Miami Center
Thu 06:30:58 PM 26.1875 -80.0494 226° Southwest 272 313 6,900  Descending Miami Center
Thu 06:31:31 PM 26.1656 -80.0953 242° Southwest 263 303 7,000  Climbing Miami Center
Thu 06:31:58 PM 26.1586 -80.1250 255° West 257 296 6,900 -500 Descending Miami Center
Thu 06:32:31 PM 26.1494 -80.1711 258° West 263 303 6,500 -1,300 Descending Miami Center
Thu 06:32:58 PM 26.1506 -80.2058 272° West 257 296 5,600 -1,574 Descending Miami Center
Thu 06:33:32 PM 26.1475 -80.2544 266° West 257 296 4,900 -875 Descending Miami Center
Thu 06:34:34 PM 26.1231 -80.3092 244° Southwest 224 258 4,200 -1,073 Descending Miami Center
Thu 06:35:35 PM 26.0825 -80.2664 137° Southeast 208 239 2,700 -1,475 Descending Miami Center
Thu 06:36:36 PM 26.0753 -80.2153 99° East 136 157 1,200 -1,475 Descending Miami Center
Thu 06:38:00 PM 26.0667 -80.1500 103° East  Level FlightAware Approximate
Thu 06:45:00 PM 26.0726 -80.1527 103° East  Level Estimated

Login

Don't have an account? Register now (free) for customized features, flight alerts, and more!